This demonstration page uses our WeatherBlox Daily Observations layout. Learn more.

Left ArrowRight Arrow

Hourly Observations for August 25, 2018

Temp ( °F °C ) Dew Point ( °F °C ) Humidity (%) Winds ( mph kmh ) Pressure ( in mb ) Visibility ( mi km ) Precip ( " mm )
12:59 am 00:59 Clear 67 19.4 61 16.1 81 81 Calm 30.24 1024 10 16 0.00 0.00
1:59 am 01:59 Clear 65 18.3 60 15.6 84 84 ESE 3 6 30.23 1024 10 16 0.00 0.00
2:59 am 02:59 Clear 65 18.3 60 15.6 84 84 Calm 30.22 1023 10 16 0.00 0.00
4:59 am 04:59 Clear 65 18.3 61 16.1 87 87 Calm 30.22 1023 10 16 0.00 0.00
5:59 am 05:59 Partly Cloudy 65 18.3 61 16.1 87 87 Calm 30.22 1023 10 16 0.00 0.00
6:59 am 06:59 Partly Cloudy 66 18.9 63 17.2 90 90 Calm 30.24 1024 10 16 0.00 0.00
7:59 am 07:59 Partly Cloudy 75 23.9 66 18.9 74 74 ENE 5 7 30.24 1024 10 16 0.00 0.00
8:59 am 08:59 Partly Cloudy 77 25 67 19.4 71 71 NE 9 15 30.25 1025 10 16 0.00 0.00
9:59 am 09:59 Mostly Cloudy 77 25 67 19.4 71 71 NNE 9 15 30.26 1025 10 16 0.00 0.00
10:59 am 10:59 Partly Cloudy 80 26.7 68 20 67 67 NE 12 19 30.26 1025 10 16 0.00 0.00
11:59 am 11:59 Mostly Cloudy 81 27.2 68 20 65 65 NE 9 15 30.26 1025 10 16 0.00 0.00
12:59 pm 12:59 Mostly Cloudy 80 26.7 69 20.6 69 69 NE 12 19 30.24 1024 10 16 0.00 0.00
1:59 pm 13:59 Mostly Cloudy 79 26.1 68 20 69 69 NE 10 17 30.23 1024 10 16 0.00 0.00
2:59 pm 14:59 Mostly Cloudy 80 26.7 68 20 67 67 ENE 12 19 30.22 1023 10 16 0.00 0.00
3:59 pm 15:59 Mostly Cloudy 81 27.2 68 20 65 65 NNE 10 17 30.21 1023 10 16 0.00 0.00
4:59 pm 16:59 Mostly Cloudy 81 27.2 68 20 65 65 NNE 9 15 30.20 1023 10 16 0.00 0.00
5:59 pm 17:59 Mostly Cloudy 79 26.1 67 19.4 67 67 NE 9 15 30.20 1023 10 16 0.00 0.00
6:59 pm 18:59 Mostly Cloudy 78 25.6 68 20 71 71 ENE 8 13 30.19 1023 10 16 0.00 0.00
7:59 pm 19:59 Mostly Cloudy 76 24.4 68 20 77 77 E 5 7 30.19 1022 10 16 0.00 0.00
8:59 pm 20:59 Mostly Cloudy 75 23.9 69 20.6 82 82 SE 5 7 30.21 1023 10 16 0.00 0.00
9:59 pm 21:59 Mostly Cloudy 74 23.3 70 21.1 88 88 ESE 3 6 30.21 1023 10 16 0.00 0.00
10:59 pm 22:59 Mostly Cloudy 73 22.8 69 20.6 87 87 Calm 30.22 1023 10 16 0.00 0.00
11:59 pm 23:59 Mostly Cloudy 72 22.2 69 20.6 91 91 ESE 3 6 30.22 1023 9 14 0.00 0.00

Powered by AerisWeather